Погода в Абудже

Нигерия     9°03′04″N   7°31′18″E
темп.,
°C
ветер,
м/с
пор.,
м/с
влажн.,
%
обл.,
%
осадки,
мм/ч
давл.,
гПа
погр.,
м
6 мая, чт
чт601:00+25юв136881 0.4 1010168
04:00+24ю1274100 0.2 1010170
07:00+24зюз247995 0.2 1012352
10:00+29юз445710 0.0 10121107
13:00+33зюз3341100 0.0 10102176
16:00+33зюз443696 0.0 10061870
19:00+21всв51091100 3.9 1011334
22:00+23ююз5982100 13.3 1011180
7 мая, пт
пт701:00+23ююв1281100 13.3 1012152
04:00+23з3884100 0.0 1011457
07:00+22з1288100 0.0 1013293
10:00+26ю1271100 0.0 1014624
13:00+28ю2259100 0.0 10131084
16:00+27ююв3462100 0.8 1011427
19:00+26сз116930 1.2 101126
22:00+25зсз1170100 0.3 101313
8 мая, сб
сб801:00+23зсз2685100 0.7 1013241
04:00+23юз238899 0.0 1012125
07:00+23ююз2587100 0.0 1014333
10:00+27ю346679 0.0 10151149
13:00+30ю345596 0.2 10131486
16:00+29зюз245998 0.2 1010645
19:00+27ююв1168100 0.4 101247
22:00+23ссв3690100 7.9 1015285
9 мая, вс
вс901:00+23юз2285100 8.4 101498
04:00+22ююз3688100 0.0 1012286
07:00+22ююз3792100 0.0 1013470
10:00+26ююз3372100 0.1 1014815
13:00+30ю2252100 0.1 10121422
16:00+31ю334999 0.0 10091649
19:00+28ююз2462100 0.0 1011200
22:00+22с2582100 2.0 1014173
10 мая, пн
пн1001:00+24ссв0176100 2.0 101220
04:00+23зсз1181100 0.1 101248
07:00+23юз1283100 0.1 1013142
10:00+28юв2365100 0.0 1015835
13:00+30ююв3355100 0.0 10121401
16:00+30ююв3353100 0.0 10101356
19:00+28вюв1163100 0.0 101020
22:00+25св2484100 4.6 1013127